Wind_Speed
28 29 29 29 30 29 29 30 31 30 30 29 28 28 25 19 10 7 9 8 9 15 19 19 20 20 19 17 14 14 15 16 18 19 19 19 19 18 19 20 21 21 21 21 21 21 21 22 22 23 24 25 27 27 27 26 26 27 27 26 26 26 26 26 25 25 24 23 23 23 22 23 22 21
28 28 29 29 30 30 29 30 31 31 30 30 30 29 29 26 18 12 10 10 13 16 17 19 19 18 16 13 10 11 10 10 12 14 15 16 15 15 15 17 17 17 18 18 18 18 19 19 20 21 22 23 25 26 26 26 26 27 27 27 27 27 27 27 26 26 25 24 24 23 23 24 23 22
29 28 29 31 31 31 30 31 31 32 31 31 31 31 30 29 27 22 13 10 15 18 19 22 22 19 17 14 12 11 9 8 8 10 11 12 12 12 13 14 15 15 15 15 16 17 17 18 19 19 20 21 23 24 24 24 25 26 27 27 27 28 28 28 28 27 26 25 25 24 24 25 24 23
31 30 30 31 33 33 32 31 31 31 31 31 31 31 31 29 29 28 20 12 14 20 22 22 21 19 17 16 14 13 11 10 8 9 10 10 11 12 14 14 15 16 16 17 17 18 18 18 19 19 19 20 21 22 23 23 24 25 27 28 28 28 29 29 28 27 26 26 25 25 25 25 25 24
32 32 31 31 32 33 32 32 31 31 31 30 31 31 30 30 29 29 25 17 14 19 23 23 22 19 17 17 17 15 14 13 12 11 11 12 13 14 15 15 16 17 17 18 18 18 18 18 19 19 19 20 20 21 22 23 24 26 27 27 28 28 29 29 28 27 26 26 25 25 25 25 25 25
31 32 32 33 33 32 32 33 33 33 31 30 31 32 31 31 31 31 29 22 16 17 22 24 23 21 20 20 19 18 18 18 17 15 14 14 15 16 16 16 16 16 17 17 17 18 18 18 19 19 19 19 20 21 22 24 25 26 27 28 29 29 29 29 28 27 26 26 25 24 24 25 25 25
32 32 32 34 34 33 32 33 33 33 32 31 31 33 33 33 33 32 31 27 21 19 20 23 23 22 22 23 23 22 22 21 20 18 17 17 17 17 17 17 17 16 16 17 18 18 19 19 19 19 20 20 21 22 23 24 26 27 28 29 30 30 30 29 28 27 27 26 26 24 24 24 24 25
32 32 32 34 35 34 33 34 33 33 33 33 32 32 33 33 33 32 31 31 27 22 20 22 24 23 22 24 24 23 21 21 20 19 19 18 17 17 18 18 18 17 17 19 20 20 19 19 20 20 21 21 21 21 22 23 24 25 26 27 28 29 30 30 29 28 27 26 26 25 24 24 25 25
32 32 33 34 35 34 34 33 33 34 34 34 33 33 33 33 33 32 31 31 28 25 23 22 22 22 22 23 23 21 21 20 19 19 20 18 17 18 18 19 19 19 19 19 20 21 21 21 21 21 21 21 21 21 20 20 21 22 24 25 26 27 28 28 27 25 25 24 24 24 24 24 25 25
33 32 32 34 34 34 34 32 32 34 35 34 34 34 34 33 32 31 30 29 28 28 27 24 22 21 20 20 21 21 21 20 20 19 19 18 18 18 20 21 21 20 21 21 21 21 22 22 21 21 21 21 21 20 19 18 18 20 22 23 24 25 25 25 24 23 23 23 23 24 24 25 25 24
31 30 30 31 32 33 34 34 34 35 35 35 35 36 35 33 31 29 28 28 28 29 28 26 24 22 20 18 19 19 19 19 18 18 17 18 19 20 20 22 22 21 21 21 22 21 21 21 21 20 20 20 20 20 18 17 18 19 20 21 21 22 22 23 23 22 23 23 23 24 25 26 26 24
29 31 31 31 32 33 34 35 35 35 34 34 35 36 35 33 31 28 27 27 27 27 26 25 23 22 21 19 18 17 16 15 16 18 19 19 21 21 22 22 23 22 21 21 22 22 21 21 20 20 19 19 19 19 18 17 17 18 18 18 18 19 20 21 21 22 22 23 24 24 25 25 25 23
26 30 31 31 32 34 35 35 36 36 35 34 34 34 34 33 31 29 27 27 27 25 24 23 22 21 20 20 19 17 17 18 18 18 18 19 21 22 22 23 23 22 21 21 22 23 22 20 19 18 18 18 18 18 18 16 15 15 16 16 15 16 16 17 19 20 21 22 23 24 24 24 23 23
25 27 30 31 32 34 36 37 37 38 39 38 36 35 34 34 33 30 27 26 26 24 22 22 21 18 18 21 21 21 22 22 21 18 16 18 20 18 16 19 22 21 20 20 22 23 21 20 19 19 18 17 17 19 18 15 12 12 14 15 15 15 15 16 17 18 18 18 19 20 21 21 21 21
24 25 27 29 30 32 35 36 37 38 41 42 42 40 38 37 36 34 30 28 26 24 22 22 22 19 18 22 23 23 22 21 20 20 19 18 17 13 9 11 14 16 15 15 17 19 18 17 18 19 18 17 17 19 19 14 11 11 13 14 14 14 14 15 15 15 16 16 17 18 19 20 20 21
25 25 27 29 30 32 33 34 34 36 38 41 44 45 43 41 40 39 36 32 29 27 25 23 23 23 22 23 23 23 23 22 20 20 19 17 17 15 12 13 14 15 14 12 12 15 15 14 15 17 17 16 15 17 16 12 10 10 10 12 13 13 13 13 13 13 14 15 16 17 18 19 20 20
21 22 26 28 30 32 33 33 34 35 36 37 40 44 46 44 43 43 42 39 34 32 30 27 26 26 26 24 25 27 26 23 20 18 17 19 20 18 18 21 21 18 15 12 10 11 14 14 14 15 16 14 13 14 13 9 9 9 9 10 12 13 13 13 12 12 13 13 14 15 16 17 18 18
19 18 20 24 27 30 32 32 33 35 35 35 36 39 44 45 43 42 42 41 38 35 33 31 30 29 28 28 29 29 27 25 21 20 20 21 21 21 22 24 22 19 17 14 10 8 11 12 12 13 13 12 12 11 9 8 8 7 7 9 11 12 13 12 12 12 13 12 12 12 13 14 15 14
24 23 22 23 26 30 32 33 33 34 35 35 34 35 39 43 44 42 42 41 40 38 37 35 34 32 30 31 31 29 26 25 22 21 21 21 20 20 20 19 18 18 18 16 11 7 8 9 9 10 11 10 9 8 8 9 8 7 7 7 8 10 12 13 12 12 13 12 11 10 11 12 12 11
26 26 27 24 22 24 29 32 33 34 33 33 34 34 36 39 40 41 42 41 40 39 38 37 36 34 32 31 30 28 26 25 22 20 19 17 15 15 13 13 15 16 17 17 14 9 8 8 7 6 7 8 7 7 9 11 10 8 8 7 7 9 11 12 13 14 14 14 12 11 11 12 12 12
26 27 28 27 25 20 17 23 29 30 30 32 35 34 33 34 35 36 37 39 40 40 39 38 36 34 32 29 27 26 25 24 22 19 18 16 16 15 11 10 12 13 14 17 15 10 9 10 8 6 5 6 6 7 9 11 11 9 9 8 8 9 10 10 11 12 14 15 15 13 12 13 14 15
27 27 30 33 35 33 22 13 19 25 28 33 36 34 30 29 30 32 34 35 36 37 37 36 35 33 31 28 25 23 23 22 21 21 22 21 19 17 12 10 10 10 12 17 16 11 10 10 8 6 6 5 6 8 9 11 12 11 9 8 7 7 9 10 10 11 12 13 14 15 15 14 15 17
28 28 32 36 38 38 34 24 13 11 22 32 35 33 31 28 27 30 32 32 32 33 33 32 32 31 29 25 23 22 21 20 21 23 24 24 22 19 15 12 10 7 9 17 18 13 10 11 10 8 6 4 5 9 10 11 12 11 10 9 8 7 8 10 10 11 11 11 12 14 15 16 16 17
26 28 32 37 38 39 38 36 31 18 4 23 29 28 27 27 27 29 31 30 30 31 31 29 28 27 27 24 22 21 20 20 21 23 24 24 23 22 18 14 13 9 7 13 18 15 11 10 12 11 8 4 3 7 10 12 12 12 11 10 9 8 9 10 10 11 10 10 10 11 13 16 16 15
23 27 31 34 35 36 39 39 38 34 22 7 11 15 17 20 25 29 30 30 29 29 28 28 28 26 25 22 21 20 20 20 21 23 24 24 24 23 19 16 16 13 7 7 14 17 14 11 13 14 11 4 3 6 8 11 12 13 12 11 10 10 10 10 10 9 9 10 10 10 11 14 15 15
20 23 26 29 31 33 37 39 36 34 32 28 22 14 10 10 15 23 26 27 27 26 25 26 25 24 22 21 20 20 20 21 22 24 25 26 25 23 20 17 16 14 10 7 10 16 16 13 13 15 13 8 5 6 6 7 10 12 12 11 11 10 10 11 10 9 9 11 11 10 10 11 12 13
17 19 19 23 27 30 33 36 35 33 32 31 30 24 18 13 11 15 19 22 23 23 22 23 22 20 20 20 19 20 21 21 21 21 22 23 21 19 17 14 12 12 11 9 10 14 16 15 15 16 15 11 8 7 5 5 8 12 13 12 12 11 11 11 11 10 10 12 13 12 11 11 11 12
15 17 18 19 23 26 28 30 30 32 31 29 28 27 24 22 20 17 12 13 18 19 17 16 16 15 16 16 13 14 17 18 16 14 14 16 16 15 13 12 12 13 11 10 10 13 15 15 15 16 16 14 11 9 6 5 7 11 12 11 11 12 12 11 11 11 11 13 14 13 12 12 12 12
13 15 15 14 16 18 21 23 24 27 28 26 26 27 26 26 27 27 25 22 20 19 17 16 16 16 15 14 13 11 9 9 10 11 11 12 14 15 14 14 14 15 14 11 12 15 15 15 14 13 14 15 13 11 9 8 7 9 10 9 9 10 12 12 11 10 10 12 13 14 13 13 12 12
14 14 12 10 12 14 16 17 19 22 22 22 25 26 26 26 26 25 26 28 27 25 23 22 22 21 20 18 17 15 13 11 7 4 6 9 10 11 13 13 12 14 15 13 13 15 15 14 13 12 12 13 11 8 6 6 5 6 8 8 7 7 8 10 10 9 9 10 11 12 14 15 15 14
16 16 15 13 14 15 16 17 18 18 17 18 21 22 22 23 23 22 22 23 23 23 22 22 22 21 21 20 18 17 16 15 13 7 3 4 4 9 11 9 7 8 9 9 10 13 14 13 11 11 11 11 10 9 8 7 5 6 7 8 7 6 6 7 8 8 8 8 8 9 11 13 15 16
15 16 16 15 15 16 17 18 19 18 16 15 16 17 17 18 18 19 19 19 19 18 17 16 16 18 19 18 19 19 18 17 15 12 9 4 3 8 11 10 8 6 5 3 4 8 10 10 9 8 8 9 11 13 13 10 8 7 7 7 7 7 6 6 5 4 5 6 7 7 7 8 10 11
16 17 18 17 17 17 18 18 19 19 17 15 14 13 14 15 15 15 16 16 16 15 14 14 15 16 16 15 16 18 18 18 17 15 13 7 3 7 11 13 11 8 6 4 4 6 7 8 8 8 8 7 7 9 11 11 9 9 8 6 7 7 6 6 6 4 4 5 5 4 4 4 5 5
17 18 20 20 19 19 17 17 17 18 17 16 13 11 11 11 12 12 12 12 12 12 13 15 15 14 13 13 13 14 14 15 15 16 15 10 5 9 13 17 16 13 11 9 7 6 7 8 8 8 8 8 7 7 7 8 8 9 9 8 8 7 6 6 6 6 6 6 5 4 3 2 3 3
17 18 19 19 20 19 18 17 16 16 17 16 13 10 10 10 10 10 9 9 10 10 12 13 13 12 11 11 11 11 11 12 13 14 15 12 10 14 18 19 17 14 13 14 12 9 6 7 8 9 7 6 6 5 4 5 7 9 10 9 9 7 6 6 6 7 7 7 6 5 4 2 2 2
17 18 18 18 19 20 19 18 17 16 17 16 12 9 8 8 8 8 7 7 7 8 9 9 9 9 10 10 10 10 11 11 12 13 13 11 11 15 18 16 13 9 9 11 10 9 8 6 5 7 7 5 3 3 3 3 6 7 8 9 8 7 7 8 7 7 8 7 7 6 4 3 3 2
17 18 18 19 20 20 20 19 19 18 19 19 15 11 9 8 7 6 5 5 6 6 6 6 7 7 8 8 8 9 10 11 11 10 9 8 7 10 13 14 12 9 8 8 7 6 7 8 7 6 5 3 2 2 3 5 6 5 5 7 8 9 9 9 8 8 8 7 7 7 6 5 4 3
18 18 18 18 19 20 20 20 20 21 21 22 21 18 14 12 8 5 3 2 3 5 5 5 5 4 5 5 6 7 9 9 10 9 6 5 4 5 9 12 12 10 8 8 7 6 6 6 6 5 4 2 2 2 2 4 5 5 4 4 6 8 9 9 9 9 9 8 7 7 6 6 5 5
18 18 18 17 17 17 18 19 21 23 24 24 23 23 21 19 15 12 8 5 5 5 6 6 7 6 5 5 6 8 9 8 8 6 4 3 2 2 6 10 11 10 8 7 6 7 6 6 5 4 3 3 2 3 4 4 3 2 2 3 5 6 7 8 9 9 9 8 8 7 6 6 5 5
18 19 21 20 19 18 17 19 23 27 28 27 26 26 25 24 24 22 18 13 10 8 7 8 10 10 10 10 9 8 7 6 5 4 3 2 1 1 3 8 11 11 9 7 8 9 9 8 7 6 5 4 3 4 5 4 4 3 4 5 6 6 7 8 9 10 9 9 9 8 7 6 5 5
19 21 24 26 26 25 22 21 25 29 30 29 28 28 28 28 27 26 25 22 20 18 16 14 12 10 9 9 10 9 8 6 4 4 4 3 3 4 5 8 12 12 10 9 9 9 9 9 8 6 5 4 3 3 4 4 4 5 7 7 7 8 9 9 9 10 10 11 10 9 8 6 6 5
23 23 26 30 33 33 32 29 29 32 32 32 30 29 29 29 28 27 26 26 25 24 24 22 20 17 14 11 10 9 10 9 8 8 6 4 5 6 7 10 13 14 12 11 10 10 10 10 8 7 5 4 4 3 2 4 6 7 8 8 6 7 9 10 10 10 10 9 9 8 7 5 4 4
26 26 27 29 29 30 32 33 33 33 33 34 33 33 32 32 31 31 30 29 29 28 27 25 23 21 18 16 13 9 8 9 11 12 9 6 6 7 7 10 14 15 13 11 8 9 11 11 9 7 6 5 4 3 3 6 8 8 9 9 8 7 9 10 10 10 9 8 7 6 4 3 3 2
26 25 25 25 24 24 27 30 31 32 33 34 34 35 35 34 34 34 34 32 32 31 29 28 26 24 22 19 15 12 9 9 11 13 12 9 7 7 7 8 11 12 10 8 6 8 11 11 10 8 6 5 4 4 4 6 7 8 9 10 10 9 9 10 9 8 7 7 6 6 5 4 4 3
24 24 24 24 25 25 25 26 27 28 31 32 32 33 34 34 34 34 34 34 33 32 31 30 29 27 25 22 18 15 12 9 8 9 10 9 8 8 8 8 9 11 11 10 9 9 11 12 11 9 7 6 5 5 5 6 6 7 8 8 7 7 7 7 7 7 7 7 7 7 7 7 6 5
Wind_Direction
245 243 241 239 237 236 235 233 233 232 231 230 229 229 228 231 238 248 251 247 251 254 248 248 259 263 260 258 262 266 266 265 263 260 257 257 259 259 260 262 264 266 269 271 272 272 273 273 273 273 270 266 264 263 264 264 262 262 263 264 262 261 260 261 263 264 265 265 263 262 262 262 262 262
244 241 241 241 239 238 237 238 238 237 236 234 233 233 233 232 231 236 250 253 248 250 247 244 249 256 254 251 257 263 266 269 263 258 256 256 258 260 261 263 265 267 269 270 271 270 270 271 272 272 270 266 263 262 263 263 262 262 262 263 262 260 259 260 261 262 262 262 260 259 260 259 258 257
245 240 239 239 238 239 239 240 241 240 239 238 237 236 235 232 232 232 237 254 250 243 245 248 248 250 252 249 249 252 255 261 261 259 258 257 260 262 263 265 266 268 269 269 270 269 269 270 271 273 271 268 264 262 262 262 262 261 261 260 261 260 260 260 260 260 260 258 257 258 258 257 255 254
247 241 240 239 238 239 240 240 241 241 239 238 236 236 235 231 231 232 231 243 252 244 244 251 251 248 247 243 238 238 241 246 253 260 260 257 258 262 265 268 268 268 268 268 268 268 268 270 273 274 272 269 265 263 262 262 262 261 260 259 259 260 260 259 258 258 257 255 254 256 256 255 253 251
247 242 240 241 241 241 241 239 238 238 237 236 235 234 233 231 230 230 229 234 249 248 244 248 251 248 241 237 234 233 235 241 249 255 257 258 262 266 268 268 266 265 266 266 266 267 268 270 272 273 272 270 267 264 263 263 262 261 260 259 259 259 259 258 257 256 255 254 252 252 253 253 253 250
247 243 240 241 243 241 239 237 237 236 234 231 232 233 232 231 230 228 227 230 239 245 242 242 246 245 239 239 237 233 237 247 253 254 255 258 264 268 270 269 267 265 264 265 266 266 269 270 271 271 271 269 267 265 263 262 261 260 259 258 258 259 259 258 256 254 254 253 250 250 251 252 252 249
246 243 240 240 241 239 236 235 234 234 231 228 229 231 231 231 231 228 226 226 231 240 242 240 242 241 239 241 241 241 247 254 257 256 256 258 262 265 269 270 270 268 267 267 267 267 269 270 271 270 270 269 267 265 264 262 262 262 261 261 260 259 259 257 255 253 252 252 249 248 249 250 250 247
246 242 239 239 239 235 232 232 231 230 229 226 225 228 229 230 230 227 225 225 228 235 241 240 240 239 239 243 245 246 248 251 252 254 257 261 265 268 269 270 270 271 271 270 267 267 268 270 272 271 270 269 268 267 265 264 264 264 263 263 262 261 258 255 253 252 251 249 247 246 247 249 249 245
248 242 239 239 237 233 230 228 227 227 227 225 224 226 227 228 228 226 224 224 225 232 240 241 240 240 239 242 245 244 243 244 246 251 256 261 266 269 270 271 273 274 274 272 268 267 268 271 273 272 270 268 267 266 265 265 265 265 263 262 262 261 256 251 249 247 245 244 242 242 244 247 248 246
250 244 240 239 235 232 230 227 225 226 226 224 224 226 226 227 227 223 220 220 222 229 239 243 241 239 236 236 239 240 240 240 242 247 254 259 262 266 270 272 275 276 276 275 274 272 271 271 270 269 268 265 263 262 261 263 267 266 263 260 258 258 253 246 242 240 239 238 238 239 241 245 247 245
254 245 241 239 236 232 229 227 226 225 223 223 224 225 225 224 222 218 215 217 220 226 234 238 237 236 234 233 236 238 238 238 240 242 246 252 257 261 266 270 274 276 276 276 278 277 273 270 268 267 266 262 259 257 257 263 269 267 261 256 254 253 248 243 240 238 237 237 238 240 242 244 246 244
256 246 241 239 238 236 234 231 229 227 224 222 223 224 224 221 218 214 211 213 217 222 226 231 233 231 231 232 233 233 229 225 229 234 237 246 256 261 265 270 273 273 272 274 277 276 273 271 270 266 262 258 253 252 255 262 267 263 255 250 249 248 244 240 239 238 237 238 240 242 243 244 245 242
264 250 244 242 242 241 239 237 235 234 231 225 221 222 221 218 214 211 209 210 214 217 221 225 226 225 227 229 227 226 222 220 226 232 234 243 256 263 266 269 271 268 268 271 274 273 272 273 271 264 258 254 249 248 253 257 260 254 246 242 240 239 239 238 238 239 240 241 242 243 243 242 242 240
275 258 249 248 247 244 240 238 237 237 235 231 228 227 223 218 213 210 209 210 210 212 216 220 221 220 224 227 225 226 228 228 228 229 231 240 252 259 263 268 269 265 264 268 271 272 272 270 269 264 257 251 246 245 244 242 243 240 234 233 234 234 236 238 239 241 241 242 241 239 238 237 237 235
277 267 258 255 253 248 244 243 241 240 238 235 232 231 229 224 219 214 211 210 208 209 214 220 220 218 222 226 226 227 231 230 228 229 232 237 244 246 245 261 269 266 264 264 266 270 273 270 267 264 258 250 247 247 241 229 226 231 227 226 228 230 234 236 237 238 237 236 236 234 233 232 232 233
270 266 261 258 255 253 251 249 247 245 244 240 237 234 231 228 224 220 218 214 210 209 214 220 220 218 221 224 224 226 229 228 227 230 232 233 236 234 228 235 252 264 266 259 257 266 271 269 267 264 259 250 248 253 248 228 218 228 229 226 223 223 228 230 230 231 231 231 231 230 230 230 230 231
285 274 268 264 259 257 256 253 248 247 246 245 242 239 235 230 225 223 222 221 218 215 214 217 221 220 219 221 225 227 227 224 221 220 224 230 233 230 231 240 248 257 259 251 247 261 266 264 262 260 257 250 248 255 253 228 213 222 229 227 221 218 224 227 227 227 226 227 228 228 230 230 231 234
340 323 303 288 275 266 262 256 250 248 247 245 241 238 234 229 225 222 221 221 221 220 218 219 224 225 223 224 228 229 226 222 219 220 226 233 236 237 244 252 254 253 252 246 239 250 259 258 253 251 252 247 244 248 240 213 204 211 220 224 219 217 219 220 221 224 224 223 226 228 228 230 233 233
7 358 342 317 292 276 265 257 251 250 249 246 241 234 229 226 224 221 219 218 218 220 221 223 227 230 229 230 231 229 227 225 227 233 240 245 247 249 251 252 248 244 244 238 226 232 248 245 239 243 244 239 238 234 209 194 195 200 206 215 217 217 218 215 214 217 219 218 219 223 223 223 222 213
12 5 356 339 316 289 268 258 254 252 250 247 242 234 225 220 219 219 219 219 219 220 222 225 229 232 233 232 231 228 228 231 236 242 245 243 239 234 232 232 232 235 237 230 219 217 233 232 226 234 239 233 227 215 196 190 192 198 205 212 217 219 221 219 216 216 218 218 215 214 214 214 210 202
12 5 1 0 2 347 300 267 258 253 248 243 239 230 218 211 211 214 216 217 220 223 225 227 229 231 231 231 231 230 232 236 237 234 230 225 217 210 212 223 227 229 231 224 214 210 222 227 221 219 225 225 219 210 200 196 196 202 210 213 217 222 224 223 220 219 221 220 216 210 206 207 209 209
13 8 8 16 22 19 4 316 270 255 242 234 230 221 208 202 203 207 209 210 215 220 223 225 227 227 228 229 229 230 232 232 229 224 223 219 209 203 210 222 222 226 228 218 207 201 211 216 210 200 198 207 217 215 207 202 202 204 208 208 213 222 224 223 221 221 222 222 219 213 204 201 205 209
18 15 15 22 27 25 24 22 355 278 237 228 225 215 203 197 198 202 203 204 206 210 213 216 217 218 219 220 221 224 228 230 229 227 224 218 208 206 212 212 206 214 226 215 204 197 201 205 201 194 188 192 211 213 207 203 203 205 204 204 207 214 218 219 220 222 224 223 223 221 214 207 206 207
21 18 19 23 26 25 28 33 33 29 247 222 221 213 199 190 190 194 196 198 201 202 203 202 203 206 209 211 216 223 229 230 229 226 223 218 214 211 208 203 202 207 215 211 206 201 196 198 200 198 195 190 185 196 199 199 199 201 201 202 206 208 210 213 215 217 217 215 215 217 214 210 209 209
22 22 22 22 22 24 29 36 38 38 43 94 176 190 188 182 184 187 190 195 198 198 198 198 200 204 207 209 215 222 226 223 220 220 220 218 215 211 205 200 203 207 206 205 207 204 194 190 196 195 194 186 155 169 187 193 196 198 200 204 209 209 208 209 207 205 203 200 199 200 201 203 207 211
28 29 28 25 21 22 29 35 37 37 41 53 72 99 136 163 178 183 186 190 191 190 192 193 194 195 198 203 211 216 218 215 212 213 212 209 209 209 208 205 203 207 216 217 208 205 199 191 188 187 186 182 166 162 169 181 193 198 200 204 208 208 207 204 199 195 192 188 185 185 188 192 197 200
20 23 27 29 24 23 30 35 34 35 38 44 55 71 89 101 129 165 182 188 185 182 183 182 179 181 188 196 203 207 210 209 208 210 208 208 211 210 205 204 205 213 229 234 217 209 206 202 196 192 189 181 171 171 164 160 182 192 195 201 204 203 203 201 196 192 187 183 181 180 180 180 179 179
1 7 14 25 23 22 31 39 37 34 35 40 49 60 71 79 85 95 115 153 165 162 159 158 157 162 172 177 179 190 201 203 207 209 202 206 221 223 208 203 208 215 225 226 210 204 210 215 211 202 193 184 177 182 183 169 175 183 185 192 201 202 201 198 195 191 183 180 183 183 182 183 183 183
350 355 3 20 24 20 27 38 44 42 38 39 47 55 63 68 71 72 73 81 94 99 94 93 94 102 114 117 113 124 147 167 189 207 208 216 233 234 221 212 213 216 217 213 207 206 210 219 219 208 198 195 192 189 183 169 169 181 183 182 190 200 203 200 198 196 186 182 185 187 188 191 192 196
344 341 346 4 14 14 18 28 45 54 51 46 48 53 56 59 62 65 68 68 68 69 69 70 70 75 81 84 88 94 90 79 92 173 235 255 244 217 203 201 204 206 209 214 218 214 210 215 220 212 204 201 199 200 196 175 159 173 183 182 177 185 197 200 203 205 198 189 188 190 193 196 200 205
342 338 342 352 1 9 16 23 37 51 57 57 56 54 54 56 58 59 64 67 67 65 65 65 63 65 70 70 68 69 63 49 45 50 16 297 223 166 153 151 152 163 181 199 210 206 203 207 210 206 206 202 193 197 211 210 192 180 183 185 178 168 176 189 198 208 210 204 199 196 196 200 205 210
345 343 348 358 6 11 17 24 31 38 44 52 60 60 59 62 64 62 62 65 66 66 66 65 59 55 58 58 54 53 48 38 32 35 38 38 177 155 137 131 121 108 109 133 172 178 184 191 191 190 201 202 189 188 197 201 199 195 194 190 184 177 177 180 181 186 192 193 199 205 204 204 209 215
354 353 355 3 10 11 14 20 26 31 33 37 49 60 63 64 67 69 68 66 65 65 66 66 58 49 45 48 54 52 42 32 28 29 37 52 153 170 144 132 128 119 111 109 129 146 163 181 185 183 191 195 186 186 190 188 191 201 203 195 190 191 195 198 198 191 175 171 180 194 205 209 212 219
9 5 4 6 6 6 9 14 18 23 25 27 35 50 57 58 61 66 69 69 69 71 74 74 70 60 47 45 54 54 39 27 27 29 35 52 123 159 137 120 114 111 107 99 102 129 158 175 176 175 182 184 172 170 179 181 186 195 194 187 189 192 190 195 200 195 183 177 176 174 181 210 229 239
18 13 9 8 6 6 9 11 14 21 25 23 25 37 48 55 59 57 57 62 66 69 73 73 71 62 50 44 45 44 35 29 31 32 36 55 105 133 125 110 100 93 87 82 81 87 110 146 161 157 152 152 145 144 161 174 179 184 183 180 184 184 174 175 183 180 176 178 180 180 185 212 243 266
22 19 15 11 9 11 11 10 12 18 22 23 22 24 31 42 50 52 48 47 52 61 67 71 70 65 58 52 47 39 30 27 31 33 35 51 92 117 116 107 102 99 94 87 83 78 73 79 121 138 133 128 122 115 117 140 162 176 175 166 164 164 162 166 169 167 168 173 178 183 193 214 232 258
25 23 22 20 17 17 16 17 21 22 22 24 24 15 4 6 23 45 50 36 33 38 42 48 60 65 61 57 50 37 25 19 20 26 33 46 80 110 118 118 121 129 121 104 96 91 73 56 54 74 91 99 109 108 103 105 112 125 135 137 144 153 157 160 161 160 166 176 185 189 198 214 223 225
29 24 22 19 18 18 19 21 25 28 29 31 33 31 24 17 13 10 1 353 9 17 13 12 20 34 42 44 34 19 13 11 11 17 30 44 64 107 127 128 125 128 127 115 107 108 96 73 58 58 67 78 103 117 114 105 100 106 123 136 145 151 154 155 156 159 166 175 180 182 188 198 203 201
29 25 21 17 16 19 21 23 28 34 39 41 42 44 45 46 43 35 23 360 337 330 328 329 330 335 344 356 360 357 356 358 3 16 39 51 47 120 157 153 144 140 142 142 141 146 140 119 100 95 97 107 125 125 120 114 109 120 159 164 161 162 163 160 155 157 164 170 172 175 179 182 183 180
32 32 29 27 25 24 26 32 39 45 50 52 52 52 53 56 55 52 49 45 32 14 356 334 324 320 316 313 320 329 334 338 345 353 9 24 1 280 214 184 170 162 163 166 167 166 157 138 125 125 122 114 116 120 117 114 108 109 126 142 151 159 163 157 152 152 155 158 160 162 161 159 157 152
41 39 36 38 41 41 40 43 47 49 52 54 55 54 54 53 52 51 52 52 49 46 41 29 16 5 349 332 324 315 301 292 289 290 298 291 256 247 234 205 188 178 176 177 176 173 163 146 137 139 132 120 128 133 122 119 115 111 120 133 140 145 147 143 139 141 143 143 143 141 138 136 132 121
51 49 46 47 49 50 49 51 53 52 52 53 53 52 51 50 47 46 45 44 42 41 38 34 32 33 33 28 10 337 312 302 291 276 269 263 247 238 228 211 199 191 189 190 186 177 169 160 152 148 143 147 168 177 164 169 164 142 135 141 148 152 154 151 146 143 142 139 136 131 124 119 115 104
56 55 52 49 48 47 47 49 51 52 52 53 52 51 50 48 44 42 41 38 37 36 33 30 30 30 30 31 26 7 345 334 317 296 277 263 252 242 229 216 207 201 202 206 196 173 166 165 159 153 152 161 185 210 200 178 168 154 145 147 149 155 163 164 161 157 153 150 148 146 139 131 126 122
53 51 48 45 43 43 43 45 47 49 51 52 51 49 49 48 46 43 41 39 36 34 32 30 30 29 26 26 24 18 6 348 324 308 298 290 276 263 252 234 217 211 216 227 218 187 177 175 171 168 169 171 180 196 196 175 161 153 148 144 141 143 151 155 155 153 151 150 154 155 157 158 155 150
49 49 47 44 43 42 42 42 43 45 47 49 49 47 46 46 46 44 42 40 37 35 33 31 30 28 26 25 25 22 14 1 339 321 314 312 306 298 289 271 247 236 237 237 226 205 193 187 183 184 190 190 188 196 202 193 179 169 162 157 152 150 150 152 153 150 143 145 154 158 158 161 164 163
Height
781 782 782 783 783 784 786 787 788 789 790 791 793 794 794 796 797 797 795 791 788 789 790 790 790 790 791 792 793 794 794 795 796 796 796 797 797 799 800 801 802 803 803 804 805 806 807 808 808 809 810 811 812 813 814 815 816 816 817 817 818 818 819 819 820 821 822 822 823 824 824 825 826 826
777 778 778 779 779 781 782 783 784 785 786 787 788 789 790 791 792 792 792 788 785 786 787 786 787 787 788 790 790 791 792 792 793 793 793 794 795 796 797 798 799 799 800 801 802 803 803 804 805 806 806 807 808 809 810 811 812 812 813 814 814 815 815 816 817 817 818 819 819 820 821 821 822 823
772 773 773 774 775 776 778 779 779 780 781 782 784 785 786 787 787 788 789 786 781 783 785 783 784 786 786 787 788 789 790 790 791 791 791 792 793 794 795 795 796 797 797 798 799 799 800 801 802 803 803 804 805 805 806 807 808 808 809 810 810 811 812 813 813 814 814 815 815 816 817 818 819 820
767 768 768 769 769 771 773 774 775 775 776 778 779 780 781 782 783 784 785 783 778 779 782 782 782 783 784 784 784 785 787 787 788 789 789 790 791 792 792 793 793 794 795 795 796 797 797 798 799 799 800 801 801 802 803 803 804 805 805 806 806 807 808 809 809 810 810 811 812 813 813 814 815 816
763 763 763 764 764 765 767 769 770 770 771 773 774 776 777 777 778 779 780 779 776 776 779 780 780 781 781 781 781 782 783 784 785 786 787 788 789 789 790 790 791 791 792 793 793 794 795 795 796 796 797 797 798 798 799 800 800 801 801 802 802 803 804 805 805 806 806 807 808 809 810 811 812 813
758 758 758 759 760 761 762 763 764 765 766 768 769 770 771 772 773 774 775 775 774 773 775 777 777 777 778 778 778 779 780 781 782 783 784 785 786 787 787 788 788 789 790 790 791 792 792 793 793 793 794 794 794 795 795 796 796 797 797 797 798 799 799 800 801 802 802 803 804 805 806 807 808 809
752 753 753 754 755 756 756 757 758 760 761 762 763 764 766 767 767 769 770 771 771 770 771 774 774 774 774 775 775 776 777 778 779 780 781 782 783 784 785 785 786 787 787 788 788 789 789 790 790 790 791 791 791 791 792 792 792 793 793 793 794 794 795 796 797 797 798 799 801 802 803 804 804 805
747 747 747 748 749 750 751 751 753 754 756 757 758 759 760 762 763 764 766 766 767 767 768 769 770 770 771 771 772 774 774 775 776 777 778 779 780 781 781 782 783 784 785 785 786 786 787 787 787 788 788 788 788 788 788 788 789 789 789 789 790 790 790 791 792 793 794 795 797 798 799 800 801 802
741 741 741 742 743 745 746 746 747 749 751 752 753 754 755 757 758 760 761 762 764 765 765 765 767 767 767 768 770 771 772 772 773 774 775 776 777 777 778 779 780 782 782 783 783 783 784 784 784 784 785 785 785 785 785 785 785 785 785 785 786 786 786 787 788 789 790 791 793 794 795 796 797 798
735 736 736 737 738 739 740 741 742 744 746 747 748 749 750 752 754 755 756 758 760 761 761 762 764 764 764 765 766 767 769 769 770 771 772 773 774 775 775 776 778 779 779 780 780 780 780 781 781 781 781 781 781 781 781 782 782 782 782 782 782 782 783 783 784 785 787 788 789 790 792 793 793 795
730 731 732 732 733 734 735 735 736 738 740 742 742 743 745 747 749 750 752 754 755 757 758 759 760 761 761 762 763 764 766 767 767 768 770 770 771 772 773 773 775 776 776 776 776 777 777 777 777 777 777 778 778 778 778 778 779 779 779 779 779 779 779 780 781 782 784 785 786 787 788 789 790 792
726 726 726 727 728 730 730 730 731 733 734 736 737 738 740 742 744 745 747 749 751 752 753 754 756 757 758 760 761 762 763 764 764 765 767 768 768 769 770 770 772 773 773 773 773 773 773 773 773 773 774 774 775 775 775 775 775 776 776 776 776 776 777 778 778 779 780 781 783 784 785 786 787 789
721 721 721 722 723 724 725 725 726 727 729 730 731 732 734 737 739 740 742 744 746 748 749 750 752 754 754 755 757 758 759 760 760 761 764 765 765 766 767 767 768 769 770 770 769 770 770 770 770 770 770 771 772 772 772 772 772 772 773 773 774 774 774 775 776 776 777 778 779 780 781 783 785 786
718 717 717 717 717 718 719 720 720 721 722 724 725 726 728 730 732 735 737 739 740 742 744 745 747 748 749 751 752 754 755 756 757 758 760 762 763 764 764 764 765 766 767 767 766 766 767 766 767 767 767 767 769 769 769 770 770 770 770 771 771 771 772 772 773 774 774 775 776 777 779 780 782 783
714 713 713 713 712 712 713 714 714 715 716 717 718 720 722 724 725 728 730 733 735 737 739 740 742 744 745 746 748 749 751 753 754 754 757 759 761 762 762 762 762 763 764 764 763 763 763 763 763 763 764 764 765 766 766 766 767 767 767 768 768 769 769 770 770 771 772 773 774 775 776 778 779 780
709 708 708 708 707 707 707 709 709 710 710 711 712 714 716 718 719 721 724 726 728 731 733 736 737 739 740 741 743 745 747 749 750 751 753 756 757 758 759 759 758 759 760 761 761 761 761 761 761 760 760 761 762 763 763 764 765 765 765 766 766 766 767 767 768 769 769 770 771 773 774 775 776 777
706 705 704 703 702 701 702 703 704 705 705 706 707 709 711 712 714 715 717 720 722 725 728 730 732 733 735 737 738 740 743 745 747 748 750 752 753 754 755 755 754 755 757 758 759 759 758 758 758 758 758 758 759 761 762 763 764 763 763 763 763 764 765 765 766 767 767 769 770 771 772 773 774 775
706 704 702 700 697 696 696 697 698 698 699 700 701 703 705 707 708 710 712 715 718 721 723 725 726 728 731 732 733 736 739 741 743 744 746 748 749 751 751 751 752 753 754 756 757 756 755 755 756 755 755 756 757 758 760 761 762 762 762 762 762 762 763 764 765 765 766 767 769 769 770 771 772 773
706 704 701 698 694 691 689 689 690 692 693 694 695 696 698 700 703 705 707 709 713 716 718 720 722 725 728 729 731 734 736 737 739 741 743 744 746 748 749 749 750 750 751 753 754 753 753 753 754 754 753 754 755 756 758 759 760 760 760 760 760 761 762 763 763 764 764 766 767 768 769 770 771 772
707 705 702 696 690 685 683 682 683 685 688 690 690 691 691 693 696 699 701 705 708 711 714 717 719 722 725 726 729 731 732 734 736 739 741 742 744 745 747 747 748 748 748 749 750 750 751 752 752 752 752 752 753 755 756 757 758 758 759 759 759 759 760 761 762 762 763 764 766 767 768 769 770 771
710 707 703 696 688 682 680 678 677 679 681 683 684 684 685 687 690 693 697 701 705 708 711 714 717 720 722 724 726 728 729 731 733 736 738 739 740 742 744 744 745 745 745 745 747 748 749 750 750 751 751 751 752 753 754 755 756 757 757 757 757 758 759 759 760 760 761 762 763 765 767 768 769 771
711 708 703 696 689 685 680 674 671 672 674 675 676 678 680 683 685 689 692 696 700 705 709 712 714 717 719 721 723 724 726 727 729 732 734 735 736 738 740 740 742 742 742 743 744 746 747 747 749 750 750 751 751 752 753 754 754 755 755 756 756 757 757 758 759 759 759 760 761 763 765 767 768 770
712 709 705 698 693 689 683 674 668 667 669 670 671 673 675 678 681 684 688 692 696 701 705 707 710 713 715 717 719 721 723 724 726 727 729 730 732 734 736 737 739 740 740 740 742 744 744 745 747 748 749 750 750 750 751 752 753 753 754 754 755 755 756 757 757 758 758 759 759 760 762 765 767 768
714 710 705 700 696 693 687 677 670 666 666 667 668 669 671 673 676 681 685 689 693 696 700 702 706 709 712 714 716 718 720 722 723 724 725 726 728 731 733 735 736 737 736 737 739 741 742 743 745 746 747 748 748 749 749 750 751 752 752 753 753 754 755 755 756 756 757 757 758 759 760 762 764 766
715 711 706 702 701 698 691 682 675 672 669 667 666 668 669 670 673 678 683 686 690 693 696 699 703 706 709 711 713 716 717 719 720 721 722 724 726 728 730 732 733 733 734 735 736 738 739 741 742 744 745 746 746 747 748 748 749 750 751 752 752 753 754 754 755 755 755 756 757 758 759 761 763 765
717 714 710 708 705 701 694 688 684 682 678 673 669 670 671 672 675 678 681 685 688 691 694 698 700 703 706 708 710 712 714 716 717 719 721 723 724 725 727 729 730 731 732 733 734 736 737 738 740 741 742 743 745 746 746 747 748 748 749 750 751 752 753 753 754 754 754 755 756 757 758 760 761 763
719 717 714 711 708 703 697 693 691 687 684 681 678 676 675 677 678 680 682 684 687 690 693 696 699 701 704 707 708 709 711 713 715 718 720 722 724 724 725 726 727 729 730 732 733 734 735 736 737 738 739 741 743 744 744 745 745 746 747 749 750 751 752 753 753 754 754 754 755 756 757 758 760 762
721 719 716 712 709 706 702 699 696 692 690 688 685 682 681 681 682 682 684 685 686 689 693 695 698 701 704 706 707 708 710 712 715 717 719 720 723 725 724 724 725 726 728 729 731 732 733 735 736 736 737 739 740 741 742 743 744 744 745 747 749 750 751 752 753 753 753 754 754 755 756 757 759 760
723 721 718 715 712 710 708 705 702 700 697 694 691 688 687 686 685 686 687 687 688 690 694 696 699 701 703 705 707 709 711 712 713 716 717 719 721 722 723 723 723 724 725 727 729 731 732 733 734 736 737 738 738 739 741 742 743 744 745 746 747 748 749 751 752 752 753 753 753 754 755 756 758 759
722 720 718 716 714 713 712 709 707 705 703 700 697 694 692 691 690 691 691 691 692 694 696 698 700 702 704 706 708 709 711 712 713 715 718 720 720 720 721 722 722 723 724 726 728 730 731 731 733 735 737 737 737 739 740 741 743 743 744 745 746 747 748 749 750 751 751 752 752 753 754 755 757 758
722 720 718 717 716 715 714 712 709 708 707 705 702 700 698 697 697 696 696 696 698 699 700 701 703 704 705 706 708 709 711 713 715 717 718 719 719 719 719 721 722 723 724 725 726 728 730 731 732 733 734 735 736 738 740 742 742 743 744 745 746 746 747 748 748 749 750 751 752 752 753 754 755 756
722 721 719 718 717 716 714 713 711 710 708 707 706 706 704 703 703 702 702 702 703 704 704 705 705 706 706 707 709 711 713 715 717 717 716 716 718 718 719 721 723 723 724 725 726 727 729 730 731 731 733 735 735 737 739 740 741 742 743 744 745 745 746 747 747 748 749 750 751 752 752 753 754 755
723 721 720 718 717 715 714 713 711 710 709 709 709 709 708 708 707 707 707 706 706 706 707 707 708 709 709 709 710 712 714 716 718 718 717 717 718 719 720 722 723 724 726 727 727 727 729 730 731 731 733 734 735 736 737 738 739 741 742 743 744 745 745 746 746 747 748 749 750 751 752 753 753 754
724 722 720 719 717 716 714 713 712 711 710 710 710 710 710 710 709 710 710 710 710 709 709 709 709 710 711 712 713 714 716 718 719 719 719 719 720 720 721 722 724 727 728 729 729 729 730 731 731 732 733 734 735 736 736 737 738 739 741 742 743 743 744 745 745 746 747 749 750 751 752 752 753 753
724 723 721 720 718 717 715 714 713 712 711 711 710 710 710 711 711 711 712 712 712 711 710 710 711 712 713 714 715 716 718 719 720 720 721 721 721 722 722 724 726 728 730 731 731 732 732 732 732 732 733 734 735 736 736 737 738 739 740 741 742 742 743 744 744 745 747 748 749 750 751 752 752 753
724 724 722 721 719 718 716 715 714 713 713 712 711 710 710 711 711 712 712 713 713 712 712 712 713 714 715 717 717 718 720 721 721 722 723 724 724 724 725 726 728 730 731 732 733 734 733 733 733 733 733 734 735 736 737 737 738 739 739 740 741 742 742 743 744 745 746 747 748 749 750 751 752 752
725 724 723 722 721 719 718 716 715 714 713 713 712 711 711 711 711 712 712 713 713 713 714 714 715 716 717 718 719 720 721 722 723 723 725 726 726 726 727 727 729 731 732 733 734 734 734 734 734 734 734 734 735 737 737 737 738 739 739 740 741 741 742 743 744 745 746 747 748 749 750 750 751 751
726 725 725 724 723 721 719 718 716 715 714 713 713 713 712 712 712 712 713 713 714 714 715 716 716 717 718 719 720 721 722 723 723 724 725 726 727 727 728 729 730 731 732 733 734 735 735 735 735 735 735 736 737 738 738 738 738 739 739 740 741 741 742 743 743 744 745 746 747 748 749 750 750 751
729 728 727 726 725 724 722 720 719 717 716 715 714 714 714 714 714 714 714 715 716 716 717 717 718 718 719 719 720 721 721 722 724 725 726 727 728 729 729 730 731 733 733 734 735 736 736 736 736 736 736 737 738 739 739 738 738 739 739 740 741 742 743 743 743 744 745 746 747 748 748 749 750 750
732 731 730 729 727 726 725 723 722 720 719 718 717 717 716 716 716 716 717 717 717 718 718 719 720 720 720 720 720 721 722 722 724 725 727 728 729 730 731 732 732 733 734 735 735 735 735 735 735 736 737 738 738 739 739 739 739 739 739 740 741 742 743 743 743 744 744 745 746 747 748 748 749 749
735 735 734 732 730 729 727 726 725 724 722 721 720 720 719 719 719 719 719 719 719 719 719 720 720 720 721 721 721 722 722 723 724 725 727 728 729 730 731 732 733 733 734 734 734 734 735 735 736 736 737 737 738 738 739 739 740 740 740 741 741 742 743 744 744 744 744 745 745 746 747 748 749 749
739 739 738 736 734 732 731 729 728 727 725 724 723 722 721 721 721 720 719 719 719 719 719 720 720 720 721 721 722 723 723 724 725 725 726 728 729 730 730 731 732 732 733 733 733 733 734 735 736 736 737 737 737 738 738 739 740 741 741 741 742 743 744 744 744 744 744 745 745 746 747 747 748 749
742 742 741 740 738 737 735 733 731 729 728 727 726 724 723 722 722 721 721 721 721 721 721 721 720 720 720 721 721 722 723 725 726 726 726 726 727 728 729 729 730 731 731 732 732 733 734 734 735 736 737 737 737 738 738 739 740 740 741 742 742 743 744 744 744 744 745 745 745 746 746 747 748 749
746 745 744 743 742 741 740 737 735 733 731 729 728 727 726 726 725 725 725 725 724 724 724 723 722 722 722 721 721 721 722 723 725 725 725 726 726 727 727 728 728 729 730 730 731 732 733 734 735 735 736 737 738 738 739 739 740 741 741 742 743 743 744 744 744 745 745 745 745 745 746 747 747 748
750 749 748 747 746 744 743 741 740 738 735 733 731 730 730 729 729 729 728 728 728 727 727 726 725 725 724 724 724 724 724 724 724 724 725 725 725 725 726 726 727 728 728 729 730 731 732 733 734 735 736 737 737 738 739 740 741 741 742 742 743 744 744 744 744 744 744 745 745 745 746 746 747 747